Weather History for Pensacola, FL

Change the Weather History Date:

Monday, January 7, 2013

  Actual Average Record
Temperature  
Mean Temperature 52 °F 51 °F  
Max Temperature 64 °F 60 °F 79 °F (1916)
Min Temperature 40 °F 42 °F 19 °F (1924)
Degree Days  
Heating Degree Days 13 14  
Month to date heating degree days 93 98  
Since 1 July heating degree days 537 680  
Cooling Degree Days 0 0  
Month to date cooling degree days 1 0  
Year to date cooling degree days 1 0  
Growing Degree Days 1 (Base 50)    
Moisture  
Dew Point 38 °F    
Average Humidity 64    
Maximum Humidity 92    
Minimum Humidity 36    
Precipitation  
Precipitation 0.00 in 0.13 in 2.42 in (1998)
Month to date precipitation 0.37 0.94  
Year to date precipitation 0.37 0.94  
Snow  
Snow 0.00 in 0.00 in T in (2010)
Month to date snowfall 0.0 0.0  
Since 1 July snowfall 0.0 0.0  
Snow Depth 0.00 in    
Sea Level Pressure  
Sea Level Pressure 30.26 in    
Wind  
Wind Speed 5 mph (NE)    
Max Wind Speed 12 mph    
Max Gust Speed 20 mph    
Visibility 10 miles    
Events      
T = Trace of Precipitation, MM = Missing Value Source: NWS Daily Summary

Daily Weather History Graph

Daily Weather History Graph

Search for Another Location

Airport:

Trip Planner

Search our weather history database for the weather conditions in past years. The results will help you decide how hot, cold, wet, or windy it might be!

Date:

Astronomy

Jan. 07, 2013 Rise Set
Actual Time 6:46 AM CST 5:03 PM CST
Civil Twilight 6:20 AM CST 5:30 PM CST
Nautical Twilight 5:50 AM CST 5:59 PM CST
Astronomical Twilight 5:21 AM CST 6:29 PM CST
Moon 2:14 AM CST (1/7) 1:11 PM CST (1/7)
Length of Visible Light 11h 09m
Length of Day
10h 17m
Waning Crescent, 22% of the Moon is Illuminated
Jan 7
Waning Crescent
Jan 11
New
Jan 18
First Quarter
Jan 26
Full
Feb 3
Last Quarter

Hourly Weather History & Observations

Time (CST) Temp. Windchill Dew Point Humidity Pressure Visibility Wind Dir Wind Speed Gust Speed Precip Events Conditions
12:53 AM 46.0 °F 41.4 °F 39.9 °F 79% 30.28 in 10.0 mi North 9.2 mph - N/A   Clear
1:53 AM 45.0 °F 42.6 °F 39.0 °F 80% 30.27 in 10.0 mi NNE 4.6 mph - N/A   Clear
2:53 AM 45.0 °F 41.2 °F 37.9 °F 76% 30.27 in 10.0 mi NNE 6.9 mph - N/A   Clear
3:53 AM 44.1 °F 41.5 °F 37.9 °F 79% 30.28 in 10.0 mi NNE 4.6 mph - N/A   Clear
4:53 AM 44.1 °F 40.8 °F 37.9 °F 79% 30.27 in 10.0 mi NNE 5.8 mph - N/A   Mostly Cloudy
5:53 AM 41.0 °F 39.0 °F 37.9 °F 89% 30.28 in 10.0 mi North 3.5 mph - N/A   Clear
6:53 AM 39.9 °F 36.7 °F 37.0 °F 89% 30.29 in 10.0 mi North 4.6 mph - N/A   Clear
7:53 AM 44.1 °F 40.8 °F 37.0 °F 76% 30.31 in 10.0 mi Variable 5.8 mph - N/A   Clear
8:53 AM 46.9 °F - 37.0 °F 68% 30.32 in 10.0 mi NE 6.9 mph - N/A   Clear
9:53 AM 51.1 °F - 37.0 °F 59% 30.32 in 10.0 mi NE 9.2 mph 16.1 mph N/A   Clear
10:53 AM 54.0 °F - 37.0 °F 53% 30.30 in 10.0 mi NE 5.8 mph - N/A   Clear
11:53 AM 57.9 °F - 36.0 °F 44% 30.27 in 10.0 mi Variable 5.8 mph - N/A   Clear
12:53 PM 60.8 °F - 35.6 °F 39% 30.23 in 10.0 mi NNE 5.8 mph - N/A   Clear
1:53 PM 63.0 °F - 35.1 °F 35% 30.23 in 10.0 mi Variable 4.6 mph - N/A   Clear
2:53 PM 63.0 °F - 35.1 °F 35% 30.23 in 10.0 mi NE 5.8 mph - N/A   Clear
3:53 PM 63.0 °F - 36.0 °F 37% 30.23 in 10.0 mi ENE 3.5 mph - N/A   Smoke
4:53 PM 55.4 °F - 41.0 °F 58% 30.23 in 10.0 mi Calm Calm - N/A   Smoke
5:53 PM 51.1 °F - 42.1 °F 71% 30.24 in 10.0 mi NE 3.5 mph - N/A   Smoke
6:53 PM 54.0 °F - 39.0 °F 57% 30.25 in 10.0 mi ENE 3.5 mph - N/A   Smoke
7:53 PM 53.1 °F - 39.0 °F 59% 30.27 in 10.0 mi ENE 4.6 mph - N/A   Smoke
8:53 PM 53.1 °F - 37.9 °F 57% 30.26 in 10.0 mi ENE 5.8 mph - N/A   Smoke
9:53 PM 52.0 °F - 37.9 °F 59% 30.24 in 10.0 mi ENE 5.8 mph - N/A   Partly Cloudy
10:53 PM 51.1 °F - 37.9 °F 61% 30.22 in 10.0 mi NE 6.9 mph - N/A   Clear
11:53 PM 48.9 °F - 39.0 °F 69% 30.22 in 10.0 mi East 6.9 mph - N/A   Clear